Location: ????????
(55.5667°N, 37.5833°E)
Time: 21:36:34
(UTC+00:00)

Cosmos 1455 Rocket - Pass Details

Date: 14 April 2026
Orbit: 598 x 622 km, 82.5° (Epoch: 16 May)

Event Time Altitude Azimuth Distance (km) Brightness Sun altitude
Exits shadow 22:12:44 61° 283° (WNW) 712 3.2 -24.1°
Maximum altitude 22:12:46 61° 286° (WNW) 712 3.3 -24.1°
Drops below altitude 10° 22:17:10 10° 7° (N) 2,006 6.8 -24.0°
Sets 22:19:27 0° 11° (N) 2,918 8.0 -23.9°
